Location: ???????
(55.4362°N, 38.1183°E)
Time: 16:08:02
(UTC+00:00)

FALCON 9 DEB - Pass Details

Date: 31 October 2021
Orbit: 344 x 356 km, 53.0° (Epoch: 29 November)

Event Time Altitude Azimuth Distance (km) Brightness Sun altitude
Rises 15:24:15 0° 231° (SW) 2,169 7.7 -13.6°
Reaches altitude 10° 15:26:23 10° 220° (SW) 1,333 6.2 -13.9°
Maximum altitude 15:29:01 29° 157° (SSE) 697 4.0 -14.3°
Enters shadow 15:29:46 25° 129° (SE) 770 4.0 -14.4°
